Home   Weather   Sidney   Past weeks

Flag for Canada Past Weather in Sidney, British Columbia, Canada — Yesterday and Last 2 Weeks

45 °F

Passing clouds.

Feels Like: 42 °F
Forecast: 46 / 52 °F
Wind: 5 mph from North

Location: Victoria Int. Airportb. C.

Current Time: Oct 22, 2016 at 12:12:58 AM

Latest Report: Oct 21, 2016 at 11:00 PM

Visibility: 20 mi

Pressure: 29.93 "Hg

Humidity: 93%

Dew Point: 43 °F

Location of SidneyLocation

Past Weather in Sidney — Graph


Sidney Temperature Yesterday

Maximum temperature yesterday: 52 °F (at 11:00 AM)
Minimum temperature yesterday: 45 °F (at 11:00 PM)
Average temperature yesterday: 49 °F

High & Low Weather Summary for the Past Weeks

High64 °F (Oct 20, 1:00 PM)100% (Oct 8, 3:00 AM)30.29 "Hg (Oct 8, 3:00 AM)
Low36 °F (Oct 12, 6:47 AM)41% (Oct 11, 5:00 PM)28.95 "Hg (Oct 15, 5:00 PM)
Average51 °F86%29.80 "Hg
* Reported Oct 6 11:00 PM — Oct 21 11:00 PM, Sidney, Weather by CustomWeather, © 2016

Note: Actual official high and low records may vary slightly from our data, if they occured in-between our weather recording intervals... More about our weather records


Sidney Weather History for the Previous 24 Hours

Scroll right to see more
Time TempWeatherWind HumidityBarometerVisibility
11:00 PM
Fri, Oct 21
45 °FPassing clouds.5 mph93%29.93 "Hg20 mi
10:00 PM48 °FPassing clouds.8 mph94%29.92 "Hg20 mi
9:00 PM50 °FPartly cloudy.7 mph94%29.92 "Hg20 mi
8:00 PM50 °FLight rain. Passing clouds.8 mph88%29.91 "Hg20 mi
7:00 PM52 °FLight rain. Partly cloudy.12 mph82%29.90 "Hg20 mi
6:00 PM50 °FBroken clouds.2 mph94%29.90 "Hg30 mi
5:00 PM52 °FLight rain. Partly sunny.2 mph88%29.90 "Hg30 mi
4:00 PM50 °FLight rain. Broken clouds.2 mph94%29.91 "Hg20 mi
3:00 PM50 °FLight rain. Partly sunny.10 mph88%29.93 "Hg12 mi
2:00 PM50 °FRain. Mostly cloudy.12 mph94%29.94 "Hg8 mi
1:00 PM52 °FLight rain. Cloudy.3 mph94%29.95 "Hg15 mi
12:00 PM52 °FCloudy.3 mph94%29.94 "Hg30 mi
11:00 AM52 °FCloudy.2 mph88%29.95 "Hg20 mi
10:00 AM50 °FBroken clouds.13 mph94%29.96 "Hg15 mi
9:00 AM50 °FBroken clouds.8 mph94%29.98 "Hg15 mi
8:00 AM50 °FBroken clouds.2 mph94%29.98 "Hg10 mi
7:00 AM48 °FPartly cloudy.No wind100%30.00 "Hg15 mi
6:00 AM48 °FPartly cloudy.No wind94%30.01 "Hg12 mi
5:00 AM48 °FPassing clouds.3 mph94%30.03 "Hg7 mi
4:00 AM46 °FMostly cloudy.2 mph100%30.04 "Hg7 mi
3:47 AM46 °FMostly cloudy.6 mph100%30.05 "Hg7 mi
3:00 AM46 °FPassing clouds.5 mph93%30.05 "Hg20 mi
2:00 AM46 °FPassing clouds.No wind93%30.06 "Hg20 mi
1:00 AM48 °FPartly cloudy.5 mph94%30.07 "Hg20 mi
12:00 AM46 °FPartly cloudy.2 mph87%30.08 "Hg20 mi
Weather by CustomWeather, © 2016

See weather overviewHow to use our weather pages